User: anonymous
Location: Unspecified
(0.0000°N, 0.0000°E)
Time: 11:26:40
(UTC+02:00)
Language:

Cosmos 540 Rocket - Orbit

View from above orbital plane
View from above orbital plane
View from above satellite
View from above satellite

Ground track
Ground track

The orbit data is extracted from the following two-line orbital elements,

1 06324U 72104B   14107.96015972  .00000480  00000-0  15135-3 0  2309
2 06324 074.0768 088.0791 0008869 173.6478 245.5302 14.42892854168787
Epoch (UTC): 17 April 2014 23:02:37
Eccentricity: 0.0008869
inclination: 74.0768°
perigee height: 742 km
apogee height: 755 km
right ascension of ascending node: 88.0791°
argument of perigee: 173.6478°
revolutions per day: 14.42892854
mean anomaly at epoch: 245.5302°
orbit number at epoch: 16878

The dashed part of the orbit path shows where the satellite is in the earth's shadow,  

DLR